sat.trackr.live / text

‹ back to catalog

STARLINK-34773

NORAD 65024 · 2025-161K

PAYLOAD ACTIVE UNKNOWN

§ Identity

Operator
Country
US
Launch date
2025-07-30
Launch site
AFWTR
Launch vehicle
Mass (kg)
RCS (m²)

Purposes: comms

External: N2YO · Heavens-Above · Gunter

§ Orbital elements

Epoch: 2026-09-20T21:59:10.140576Z

Period
93.85 min
Inclination
53.1584°
Eccentricity
0.0001257
Mean motion
15.34428217 rev/d
Perigee alt
461.8 km
Apogee alt
463.5 km
Semi-major
6,840.8 km
B*
4.9311e-4
RAAN
103.5856°
Arg perigee
77.1832°
Mean anomaly
282.9311°
Rev number
6,526

§ Raw data

STARLINK-347731 65024U 25161K   26263.91608959  .00016336  00000+0  49311-3 0  99972 65024  53.1584 103.5856 0001257  77.1832 282.9311 15.34428217 65268

JSON: /api/v1/satellites/65024 · /tle

For live sub-satellite position, see the globe view (requires WebGL).

§ Visibility from observer

Set your observer location to see the next 7 days of passes ≥ 10°. The values pass through the URL so the page stays shareable.

No JS? Fill the form by hand. The geolocation button needs JavaScript.